Dewpoint
74 73 74 74 74 74 72 72 72 72 71 71 70 70 70 71 69 69 70 69 69 72 71 71 72 72 72 73 71 72 73 73 74 74 75 75 75 75 74 75 75 75 76 75 74 74 75 74 75 75 76 74 75 75 74 73 71 69 71 76 74 71 72 71 69 70 72 74 74 73 73 72 70 72 73 73 73 74 74 73 74 75 74 75 73
74 74 74 73 72 74 74 74 72 72 71 70 70 69 69 70 70 70 69 69 69 69 71 71 71 71 70 71 71 71 72 72 72 74 74 74 74 74 75 75 74 74 74 74 73 74 74 75 74 74 75 72 73 72 71 70 70 69 70 71 70 70 73 71 70 70 70 72 73 75 72 74 71 74 72 72 71 74 74 73 73 73 75 75 74
72 73 74 74 74 75 74 73 72 71 71 70 68 68 68 68 70 69 69 69 69 69 69 69 72 71 71 71 71 71 73 73 72 73 73 73 73 72 72 74 74 74 74 74 74 74 73 74 75 74 74 73 73 72 71 69 69 69 69 70 70 70 72 73 71 71 71 71 73 72 72 73 71 72 73 72 73 73 73 73 72 73 75 76 75
73 72 73 74 74 74 73 72 71 71 70 71 70 67 66 67 69 69 68 67 68 69 69 68 69 72 71 71 71 71 73 72 72 72 73 73 73 73 72 73 73 73 73 73 74 73 73 73 72 73 72 71 71 71 70 69 69 71 72 72 70 69 73 75 73 70 72 71 71 71 72 72 73 74 74 74 73 72 72 74 75 74 74 75 76
74 74 73 73 73 74 73 73 72 73 72 73 71 70 68 64 67 67 67 66 66 68 71 69 69 71 71 71 73 72 73 72 71 70 72 73 73 72 72 72 73 73 73 73 75 72 72 72 72 72 72 72 72 73 72 71 70 69 67 68 70 72 73 71 71 72 69 68 70 73 74 74 74 73 73 72 71 73 75 74 74 73 72 72 74
73 73 73 72 71 71 72 71 72 72 72 72 72 72 71 70 68 66 66 66 66 66 67 70 70 70 70 70 71 73 73 73 72 71 70 71 73 72 72 72 71 72 73 73 73 73 73 72 72 72 71 70 70 70 71 70 70 70 69 68 70 73 73 73 73 72 72 71 72 71 71 71 72 72 73 74 74 72 71 72 74 74 74 73 74
74 72 72 73 72 72 72 72 71 73 73 73 73 73 72 72 71 69 65 65 65 66 66 67 71 71 71 70 70 72 72 72 73 73 71 70 70 71 71 72 72 71 71 71 72 72 72 71 72 72 71 71 71 71 71 71 71 70 71 72 72 72 71 71 72 73 73 72 72 73 72 73 73 73 73 75 74 74 71 70 70 72 74 74 74
71 73 72 73 73 72 73 74 73 73 73 73 73 73 73 71 72 72 72 65 65 64 66 66 68 71 71 70 70 71 72 71 72 73 72 71 71 71 70 70 71 71 70 70 70 69 70 70 69 70 71 71 70 70 71 70 71 70 69 69 69 69 69 71 72 71 71 71 71 71 72 72 70 71 71 70 69 69 70 69 67 67 69 75 76
70 71 72 71 72 72 72 73 73 73 73 73 72 72 73 72 73 74 73 71 66 64 64 66 66 67 70 71 70 70 71 71 71 72 73 72 71 71 71 70 70 70 69 69 69 69 69 69 69 68 70 75 74 73 72 73 70 70 71 71 71 71 70 70 70 70 70 70 70 70 70 69 69 70 70 69 68 68 69 72 71 72 72 74 73
70 70 71 72 72 71 71 73 74 74 73 72 72 72 72 74 74 74 74 73 72 71 70 67 66 66 67 69 70 70 70 70 72 70 71 72 71 70 70 70 70 69 69 69 68 69 69 68 67 73 75 77 76 73 72 73 74 70 69 71 71 71 72 72 72 72 72 71 72 71 71 70 70 70 70 70 70 70 70 70 69 70 70 71 72
67 68 70 71 72 72 72 73 73 72 73 74 74 74 75 75 74 74 72 72 72 72 71 70 68 65 66 66 68 68 68 69 69 65 66 69 72 71 70 70 70 69 68 69 68 68 68 67 66 70 73 76 76 74 72 71 71 72 72 74 75 72 71 72 72 72 71 71 71 71 71 70 70 70 69 68 68 68 67 66 69 73 71 68 67
64 65 66 67 70 71 71 71 71 71 71 71 71 72 74 73 73 72 72 72 72 72 71 72 72 71 69 67 66 67 67 68 64 63 64 65 69 72 71 70 70 70 69 68 68 69 68 67 66 64 65 65 64 70 73 71 68 69 69 70 72 74 73 72 71 71 72 72 72 72 71 71 71 70 70 70 70 69 69 69 69 68 67 67 68
61 63 64 66 67 69 71 71 71 71 71 71 72 73 73 73 73 73 74 74 74 73 72 72 71 72 71 71 71 70 67 65 62 61 62 63 64 69 70 71 70 70 69 69 69 69 69 68 67 65 63 72 74 69 70 72 69 66 67 68 70 69 67 67 69 69 69 71 71 71 72 71 71 71 71 70 69 68 69 70 70 69 69 68 68
59 59 60 62 65 66 69 70 71 71 71 72 71 71 72 72 73 74 74 74 73 73 73 73 73 72 72 72 71 71 70 69 62 60 60 61 62 65 70 70 70 70 69 68 68 68 68 68 68 67 66 66 65 65 68 70 70 69 69 68 68 69 69 67 65 66 68 67 66 65 65 68 68 68 70 70 70 70 70 70 70 70 70 70 70
59 58 58 59 62 63 65 68 69 71 71 71 71 71 71 71 71 72 74 74 74 73 73 73 73 73 72 71 71 70 69 66 64 60 57 57 59 62 68 70 70 69 69 68 68 67 68 68 68 67 67 67 67 66 64 67 70 69 68 67 67 67 67 67 68 67 67 66 65 64 64 63 64 65 65 67 69 71 71 70 71 72 72 72 72
61 60 59 58 61 62 61 64 67 68 70 70 70 70 71 72 72 73 74 74 74 74 74 74 73 73 72 72 71 71 70 65 63 62 57 55 58 63 66 69 69 69 69 69 68 68 68 68 68 67 67 67 70 68 69 67 66 69 71 70 69 68 67 69 65 66 68 67 66 66 65 65 64 65 64 63 65 68 71 72 73 72 71 70 70
62 64 63 62 63 64 66 66 67 68 69 69 69 70 70 72 73 74 73 73 73 73 73 73 73 73 73 73 72 71 70 68 63 59 59 57 58 62 65 66 68 69 69 68 68 68 68 68 69 69 69 69 69 65 65 70 68 67 68 69 71 71 72 72 67 64 64 63 63 64 63 63 62 61 60 61 64 64 68 69 69 71 70 69 70
54 56 54 57 66 66 67 66 65 65 65 67 68 68 69 69 70 71 72 72 72 72 72 73 73 73 73 73 72 71 71 69 58 61 60 57 60 63 65 66 66 67 68 69 69 69 68 72 73 68 67 67 65 63 63 68 69 69 68 68 67 66 66 67 67 69 64 63 63 63 63 63 63 63 63 63 62 65 65 64 64 66 67 67 66
53 53 52 54 54 59 61 65 64 63 63 64 67 66 67 68 68 70 71 71 71 71 72 71 71 71 71 71 74 73 71 68 60 61 61 57 61 66 67 67 67 66 67 68 69 70 69 71 72 70 69 67 62 62 61 66 67 68 69 68 68 67 66 66 66 65 65 66 68 69 69 68 69 68 68 65 65 69 66 65 65 66 66 67 67
57 56 57 54 53 57 56 62 66 66 65 65 66 65 67 68 68 69 69 68 68 70 71 70 70 69 70 71 71 71 72 72 70 60 60 57 57 69 69 68 67 67 67 67 68 69 69 69 70 64 62 62 61 60 60 60 66 66 66 66 66 65 66 66 67 66 66 67 66 68 70 70 70 70 70 69 69 70 67 67 67 67 67 67 68
57 59 59 56 55 54 56 57 59 60 63 64 67 68 66 66 66 67 68 69 66 65 65 65 65 66 67 69 69 73 72 71 71 63 59 55 54 61 69 69 68 68 68 68 68 68 68 69 70 67 61 59 58 58 58 58 61 67 68 67 67 66 68 67 68 74 69 69 69 69 70 71 71 71 70 70 69 69 69 67 67 67 67 67 67
58 59 58 58 57 57 57 59 61 60 61 63 63 65 67 68 68 67 67 68 68 68 68 69 68 69 69 69 69 71 73 72 72 67 60 56 52 55 67 70 69 69 69 69 70 70 69 69 70 68 62 59 58 57 56 57 58 65 67 62 62 63 67 69 69 69 70 71 71 71 71 70 71 73 72 71 71 71 70 70 69 68 68 68 69
56 56 58 58 59 59 59 59 58 58 57 58 57 59 61 63 66 69 69 69 69 68 68 68 69 69 70 70 70 71 73 73 69 70 64 57 52 51 57 64 64 70 70 69 69 69 70 70 71 70 62 58 56 56 56 57 58 62 59 59 59 61 66 68 69 70 70 70 70 70 70 70 70 69 69 71 72 72 72 71 71 71 71 70 70
56 56 58 57 58 58 58 57 55 54 55 57 57 57 58 60 62 65 66 67 67 67 69 69 70 70 70 69 69 72 73 73 71 68 68 61 53 51 51 53 57 64 68 69 70 70 70 70 66 51 51 51 53 53 53 55 60 57 56 57 58 61 65 67 67 68 69 69 69 69 69 70 70 70 69 70 70 72 73 73 73 73 72 72 72
57 56 56 55 56 56 57 57 57 56 55 55 56 58 57 57 57 58 61 61 65 67 67 68 68 69 69 69 69 72 74 73 73 71 67 63 58 53 51 51 52 52 60 63 66 68 65 57 52 52 54 54 54 54 53 54 53 54 55 56 59 63 64 66 67 68 68 68 68 68 69 69 69 69 70 70 70 70 70 70 71 73 73 73 73
57 57 57 57 57 57 56 55 55 56 56 56 57 59 59 60 60 60 61 63 64 64 64 65 65 66 68 70 72 72 73 73 73 73 72 71 67 61 56 54 57 56 57 62 60 59 57 56 56 56 58 60 63 64 64 65 59 56 56 58 61 63 64 65 66 67 67 67 68 68 68 69 69 70 70 70 70 69 69 69 69 69 70 71 73
57 56 55 55 55 56 56 56 56 57 56 55 55 56 58 58 58 60 60 59 59 61 64 67 67 64 66 67 69 70 70 72 72 72 72 73 72 71 63 62 60 56 58 59 59 60 60 60 61 60 60 61 62 63 63 65 67 66 63 62 62 63 64 65 66 67 67 67 68 68 68 69 70 70 70 70 69 69 69 69 69 68 69 69 69
54 52 51 52 53 54 54 56 55 54 54 53 53 52 52 54 53 54 55 56 56 56 54 55 56 60 60 58 58 59 61 64 66 67 70 71 70 70 68 68 68 67 66 66 65 66 66 65 63 66 67 68 68 68 67 67 66 66 67 66 64 64 65 66 67 67 67 68 68 69 69 69 69 69 69 69 69 69 70 69 69 68 68 68 68
54 51 51 51 51 55 55 52 51 52 53 53 53 54 54 54 52 52 51 52 55 55 53 51 53 51 52 53 54 54 55 57 60 64 66 61 63 64 64 66 66 67 68 63 68 68 68 69 69 69 69 68 68 68 68 68 68 68 67 68 67 66 65 65 66 66 67 67 68 68 68 69 69 69 69 69 69 69 70 70 70 70 70 69 68
51 51 51 51 51 52 53 51 51 53 53 54 54 55 58 52 51 52 52 57 54 50 48 51 52 51 50 51 55 55 55 57 57 55 51 49 50 51 53 53 53 60 61 58 63 65 66 67 68 68 69 69 69 69 68 68 68 68 68 65 67 68 67 66 66 66 67 67 67 67 68 68 68 69 69 69 69 69 69 67 70 71 71 70 70
52 51 52 51 52 53 53 53 53 53 53 53 54 54 55 55 50 49 50 53 50 47 46 46 47 48 54 52 54 54 54 52 50 50 50 50 50 49 49 49 48 47 48 56 63 65 66 66 67 67 68 68 68 69 69 69 69 68 68 69 69 68 67 68 67 66 66 66 67 67 67 68 68 68 68 69 69 69 70 69 69 70 70 70 70
50 50 49 50 52 52 51 52 53 53 52 52 53 54 53 53 53 50 48 48 48 47 46 45 45 45 46 50 52 54 53 51 50 50 50 50 49 48 47 46 45 46 47 50 61 64 65 66 66 66 67 68 68 68 69 69 69 70 70 69 69 69 68 68 68 68 68 67 67 67 67 68 68 68 68 68 68 69 69 69 69 69 69 70 70
50 49 49 50 51 52 52 52 53 53 52 52 53 53 52 52 51 52 52 50 49 47 46 46 45 44 44 45 44 44 46 48 49 48 48 49 48 48 48 45 44 45 49 57 61 62 64 64 65 65 66 66 67 67 68 69 69 70 70 70 70 70 70 70 68 69 68 68 68 68 68 68 68 68 67 67 68 68 69 69 69 70 70 70 69
50 50 50 50 50 51 51 51 51 51 51 51 52 52 53 53 53 53 53 53 53 50 48 47 46 46 45 45 44 45 44 44 45 46 46 46 46 47 45 48 46 45 50 59 61 61 63 63 64 65 65 66 66 67 67 68 69 69 70 70 71 71 71 71 71 70 69 69 70 69 69 69 68 68 68 69 69 69 69 68 69 69 69 69 69
49 51 51 51 50 49 49 49 49 50 51 52 52 52 52 52 52 52 52 53 54 54 55 57 53 50 54 52 50 48 47 45 45 45 45 46 46 45 46 54 58 57 51 54 58 60 61 62 63 64 65 65 66 66 67 68 68 68 69 70 70 71 71 71 71 71 70 70 70 70 70 70 70 69 69 70 70 70 70 70 69 69 69 69 69
48 48 48 49 49 49 49 49 50 50 50 50 51 51 52 52 52 52 52 53 54 54 54 53 54 53 50 47 46 46 46 46 47 46 46 45 44 47 57 59 60 60 61 62 61 61 62 62 63 63 64 65 66 67 67 68 68 69 69 69 69 70 70 71 70 70 69 70 69 69 68 70 70 70 71 71 70 70 70 70 69 69 69 70 69
47 47 47 48 49 50 50 51 50 50 52 51 50 50 50 51 52 51 52 51 52 51 51 51 52 54 55 58 56 51 48 46 46 46 44 44 44 50 56 59 60 60 62 62 63 64 64 65 65 65 65 65 66 67 67 68 68 69 67 69 69 69 69 69 70 70 70 71 71 70 69 70 70 70 70 70 70 70 70 70 69 68 68 67 66
48 48 49 50 50 50 50 50 51 53 52 52 51 51 51 50 50 51 52 52 53 53 52 52 54 53 53 54 60 57 54 50 49 48 48 47 48 52 56 58 59 60 61 62 63 64 65 66 66 67 67 67 67 67 68 68 69 69 69 69 69 69 66 68 68 71 70 71 72 71 70 70 71 70 69 69 69 69 69 69 69 69 68 66 66
48 50 51 51 51 50 50 51 51 51 51 52 52 52 52 51 51 50 49 49 49 49 50 51 52 55 55 55 55 58 59 60 60 60 60 60 59 58 58 59 59 60 61 62 63 64 65 65 66 67 68 69 69 69 69 69 69 70 70 70 70 70 70 70 71 71 70 71 71 71 71 71 71 71 70 70 69 69 70 69 69 69 69 69 69
48 47 48 50 49 50 50 51 51 50 51 52 52 52 52 51 50 50 50 49 49 49 49 49 50 50 52 55 56 56 56 58 60 62 62 62 62 61 60 60 61 62 62 63 64 65 65 66 67 68 70 71 71 71 71 71 71 71 72 72 72 72 72 73 72 70 69 70 70 70 71 71 71 71 70 70 70 70 70 70 69 69 69 69 69
46 46 48 48 49 48 49 50 50 50 51 52 52 52 52 52 51 51 51 51 51 51 51 50 49 49 49 48 49 49 50 51 53 56 59 61 61 61 61 62 62 62 62 64 64 63 62 62 63 64 64 66 66 66 66 66 66 66 67 67 68 68 70 72 70 69 69 69 69 70 70 70 70 70 70 70 66 68 69 69 69 69 68 68 68
45 45 46 46 48 48 49 50 51 51 51 51 50 51 51 51 51 51 51 51 51 51 51 51 50 51 49 47 45 44 46 50 56 59 60 60 60 61 61 61 61 61 61 60 60 59 59 59 59 59 60 61 62 62 62 62 62 63 64 65 66 67 67 68 69 69 69 69 69 69 70 69 70 70 70 65 70 69 69 69 69 68 68 68 68
47 46 45 46 46 47 47 48 49 49 50 50 50 51 51 51 51 52 51 51 51 51 50 50 51 52 52 50 50 48 50 54 59 59 58 58 59 60 60 59 58 57 57 57 57 57 57 56 56 57 57 58 59 60 59 59 60 60 60 61 62 63 64 65 67 68 69 69 68 68 69 70 69 70 70 69 69 70 69 69 68 68 67 68 67
46 45 45 45 45 46 47 48 49 50 49 51 51 51 51 51 52 52 51 51 51 51 51 50 51 52 53 55 55 55 57 57 57 58 59 59 58 58 57 56 55 54 54 54 54 54 54 54 54 54 55 56 57 57 57 57 57 57 58 58 59 60 61 63 65 66 66 66 67 67 68 69 69 69 69 68 69 69 69 69 68 67 67 68 68
44 45 45 45 45 46 45 46 47 47 49 50 50 50 51 51 51 51 51 51 51 51 51 52 52 53 54 54 55 56 56 58 59 57 56 55 54 53 53 52 52 52 52 52 52 52 52 52 52 52 53 53 54 54 55 55 55 55 55 55 56 56 58 60 61 61 62 63 64 65 66 66 67 68 69 69 68 68 68 68 68 66 66 66 67
45 45 46 45 44 45 44 44 46 46 47 48 48 48 49 49 50 51 51 51 51 51 51 52 52 53 53 53 54 56 56 54 54 54 53 53 51 51 51 51 50 51 51 51 51 51 51 51 51 51 51 51 51 52 52 52 53 53 53 53 53 53 54 55 56 57 58 60 62 63 64 65 66 66 67 67 67 67 67 67 67 67 67 66 66
45 44 43 42 42 42 43 43 44 44 44 46 47 48 49 49 49 50 51 52 52 53 52 52 53 53 55 55 56 55 53 53 52 52 51 51 50 50 49 50 49 50 50 50 50 50 50 49 49 49 49 50 50 50 50 51 51 51 52 52 52 52 52 53 53 53 54 55 57 59 61 63 64 64 65 65 65 66 65 65 65 65 64 63 63
41 42 42 43 42 42 43 43 44 46 47 48 49 49 50 50 50 51 51 51 52 52 52 53 53 53 54 54 55 53 52 51 50 51 50 49 48 48 48 48 48 48 49 49 49 49 49 49 48 49 49 49 49 49 49 49 48 48 49 49 50 50 49 47 47 48 51 53 56 58 60 62 63 64 64 64 64 63 63 60 59 59 59 58 58
41 41 41 41 43 44 45 46 48 48 48 49 49 49 50 49 50 51 51 52 52 54 54 54 55 55 54 52 51 50 50 50 48 48 47 47 47 46 46 46 47 48 48 48 48 48 48 48 48 48 48 48 48 48 47 46 46 45 45 45 45 45 42 41 42 47 49 53 57 59 60 61 61 60 58 57 56 56 56 55 55 55 55 55 54
41 42 43 44 45 46 48 48 48 48 49 49 49 50 51 51 52 52 53 53 54 54 55 55 53 52 51 50 49 48 48 47 46 46 46 45 45 46 45 45 45 46 47 47 47 48 47 47 47 48 48 48 47 46 46 45 44 44 44 43 42 39 39 41 43 46 49 54 58 59 59 57 56 55 55 54 54 53 53 53 53 53 53 53 52
42 43 43 44 44 46 47 47 47 47 48 48 49 50 50 51 51 52 52 52 51 51 51 51 49 50 49 49 49 48 47 46 46 45 45 45 45 44 44 45 46 46 46 46 46 46 46 46 46 46 47 47 46 46 45 44 44 43 42 40 38 37 37 39 46 43 46 50 54 54 54 54 53 53 52 52 52 52 52 52 52 52 52 52 51